2008 KV42

Japanese version
Home page
Total 6,336 html files since Dec. 4, 1995
Updated on July 20, 2008

---------------------------------------------------------------------

* Profile

Discovery Date May 31, 2008
Magnitude 23.7-23.8 mag
Discoverer B. Gladman, J. Kavelaars, J.-M. Petit (Canada-France-Hawaii telescope)

* Orbital Elements

Epoch 2008 June 3.0 TT = JDT 2454620.5                  MPC
M 330.07583              (2000.0)            P               Q
n   0.00316033     Peri.  132.89545     -0.06257376     +0.27129487
a  45.9883262      Node   261.01603     +0.35796445     +0.90441740
e   0.5603890      Incl.  103.49524     +0.93163618     -0.32928448
P 312              H    8.8           G   0.15
From 15 observations 2008 May 31-July 8.

* Magnitudes Graph

        H = 8.8  G = 0.15

---------------------------------------------------------------------

The orbital elements are published on M.P.E.C. 2008-O02.
The magnitudes graphs are made with Comet for Windows.

---------------------------------------------------------------------

Copyright(C) 1995-2008 Seiichi Yoshida (comet@aerith.net). All rights reserved.